Wind_Speed
22 26 30 33 33 29 26 23 20 18 16 14 9 5 3 6 5 5 6 7 6 6 5 3 4 6 7 8 8 9 10 8 8 5 7 14 14 13 13 11 9 8 7
15 24 30 32 32 31 28 25 23 21 18 15 11 7 5 8 7 6 7 8 7 6 5 4 5 7 7 8 9 9 9 8 8 8 11 13 14 13 12 11 11 10 10
16 26 31 31 31 31 27 25 25 22 19 16 11 8 6 8 7 8 8 7 6 6 5 5 7 8 10 10 10 9 9 9 9 10 11 11 12 13 13 12 11 10 10
20 29 32 34 34 31 26 30 26 22 18 15 11 8 9 9 9 9 7 6 6 6 5 5 7 9 10 10 10 9 10 11 12 11 11 11 12 12 13 13 13 12 12
27 32 35 35 36 35 34 29 23 19 16 13 12 10 11 11 10 8 7 7 6 6 6 7 9 10 11 12 13 14 14 14 14 15 14 14 14 14 15 14 14 14 13
26 32 34 37 40 35 32 27 24 18 16 13 10 12 13 12 11 9 8 6 6 6 8 8 10 11 14 15 17 19 19 19 19 19 19 17 16 15 15 15 15 14 14
23 38 40 41 39 33 29 24 21 17 12 11 14 15 14 13 11 9 7 5 4 4 4 6 7 10 13 16 19 21 22 22 20 19 19 19 18 17 16 16 15 14 15
27 35 42 39 32 32 29 22 16 17 14 16 17 16 15 13 9 7 5 2 1 1 4 4 6 7 11 17 21 22 21 20 21 22 22 21 20 19 18 18 18 17 16
25 34 34 32 34 28 26 22 20 17 20 19 18 17 15 12 10 7 4 4 2 3 5 6 7 10 12 16 22 19 17 19 20 21 22 21 21 20 20 20 20 20 20
14 17 26 32 34 36 30 27 19 21 19 18 17 15 14 11 9 7 5 6 6 4 5 7 11 13 14 17 18 18 20 21 21 21 22 24 25 24 22 21 22 22 23
18 15 30 28 31 33 32 26 26 22 18 18 17 15 15 11 9 8 7 9 8 7 10 11 11 12 15 18 18 18 19 20 21 21 22 23 25 24 24 23 22 23 24
11 20 24 22 29 33 20 22 21 21 19 18 17 15 12 11 9 8 7 9 11 12 15 15 14 15 18 19 18 19 20 22 24 25 26 26 27 26 24 24 23 22 23
17 17 17 25 30 25 21 19 18 16 17 18 17 14 11 8 10 8 8 10 13 14 14 16 19 20 21 21 22 22 24 27 28 29 29 28 27 28 27 24 24 21 20
28 30 21 17 15 15 14 13 17 16 17 16 14 11 10 10 11 13 13 13 10 12 18 24 25 23 22 24 25 28 30 31 31 31 31 30 29 29 28 27 26 25 23
22 21 19 17 14 11 13 16 15 13 13 14 13 11 11 12 14 17 16 15 19 20 24 27 26 25 24 25 29 31 33 34 35 36 33 30 29 30 30 30 29 30 28
18 18 14 13 12 10 9 11 10 9 10 12 13 13 12 12 16 18 19 21 23 24 25 27 26 23 24 27 30 33 35 38 39 37 34 34 33 32 32 31 31 31 31
8 12 13 13 13 11 8 7 8 9 11 12 13 13 14 14 19 17 21 23 24 27 28 28 27 26 28 30 33 35 37 40 40 37 35 34 34 34 35 35 35 34 35
10 11 13 14 14 13 12 10 9 8 8 9 11 13 15 17 20 21 23 24 26 29 27 24 26 29 32 33 34 35 37 39 39 38 37 37 37 37 37 38 39 40 41
14 13 14 15 14 13 12 9 7 7 9 9 12 13 15 19 22 24 24 23 27 24 22 25 30 33 34 35 36 37 39 38 37 38 38 38 37 37 38 40 41 42 44
17 17 16 14 12 11 10 7 4 5 7 10 12 15 17 21 23 25 23 22 20 22 25 29 33 33 36 36 36 39 39 37 37 36 36 36 36 37 39 41 43 44 47
12 11 9 9 7 6 4 4 6 8 11 12 15 17 18 20 21 21 21 21 23 27 30 34 33 35 36 35 37 38 38 38 37 35 35 36 36 37 39 42 43 45 47
12 10 9 8 8 8 8 10 11 12 14 16 16 15 18 19 20 21 22 23 27 31 33 36 35 37 37 37 38 40 41 38 37 35 36 37 37 38 39 41 43 43 45
10 8 9 9 10 12 13 15 14 14 17 16 16 17 19 18 20 21 22 24 29 30 31 31 38 42 39 37 41 40 43 42 42 38 37 39 41 41 41 42 42 42 43
1 5 10 11 14 17 20 20 19 17 18 15 19 21 18 18 19 22 26 28 27 29 32 37 40 36 36 42 41 39 40 43 46 47 44 42 41 40 40 41 40 40 42
10 11 11 14 17 17 22 24 22 22 17 19 19 20 19 20 23 25 26 32 33 27 32 37 38 37 41 39 39 42 42 43 43 44 47 47 45 38 37 39 37 36 36
17 16 18 19 19 20 20 21 26 24 19 18 19 18 21 24 26 31 34 38 42 32 38 43 43 42 40 40 41 43 45 45 43 43 44 43 43 45 40 37 34 32 32
Wind_Direction
202 194 192 188 188 187 187 186 182 180 175 172 170 171 160 157 144 133 121 115 111 108 97 72 45 43 46 42 36 32 33 39 51 29 347 337 341 348 353 358 359 357 350
204 195 191 190 189 189 187 185 186 182 179 178 181 180 173 173 153 143 129 120 114 97 74 41 21 25 34 37 38 29 24 24 9 348 338 339 339 341 342 347 346 346 343
200 193 190 190 191 192 187 200 188 183 181 182 184 189 188 175 151 140 133 123 102 81 55 28 14 15 20 24 21 15 9 2 353 348 347 343 336 338 342 343 342 336 327
197 192 190 190 192 190 211 194 187 185 180 180 187 193 189 171 148 142 135 124 99 78 57 32 23 22 18 18 15 8 354 347 345 342 335 336 338 337 330 330 333 329 323
192 194 194 193 190 198 196 190 182 180 181 179 192 192 176 161 150 148 141 120 105 95 77 45 27 20 14 11 10 4 355 350 344 339 337 334 329 326 323 322 319 317 315
199 199 198 194 195 193 188 185 180 172 185 188 199 182 168 154 154 152 138 126 108 84 67 54 24 15 9 7 3 356 350 346 342 337 336 334 330 326 321 315 313 314 308
217 203 200 194 187 179 181 176 172 170 189 197 174 167 158 159 155 148 144 130 102 77 58 48 41 6 2 355 353 348 341 338 336 333 330 330 328 325 322 318 319 317 313
220 218 190 188 182 176 170 162 163 163 192 166 161 161 163 158 155 160 163 163 177 34 2 358 360 351 344 351 345 338 335 335 333 329 326 324 323 322 321 321 319 316 315
206 159 154 157 158 148 157 161 157 174 161 162 163 164 163 158 170 180 198 231 292 321 331 319 327 340 344 338 336 334 332 333 328 327 325 323 320 319 317 316 313 310 308
181 160 163 181 173 150 152 156 163 155 159 163 165 166 167 178 187 203 231 273 283 299 319 332 333 332 328 331 333 334 336 333 329 330 326 324 322 321 316 311 311 309 305
240 229 190 194 195 172 145 154 152 154 162 168 171 173 182 187 210 233 252 273 308 316 316 320 319 324 328 329 337 339 333 330 328 329 325 323 318 317 317 316 312 310 305
238 200 203 202 177 147 128 136 148 167 173 174 179 187 196 213 232 250 280 301 297 312 313 318 321 322 327 332 337 338 335 327 327 330 326 321 317 314 310 308 307 306 304
239 203 128 132 123 138 146 156 164 167 180 184 189 202 217 233 258 277 285 284 300 300 315 321 319 320 326 332 335 336 331 328 329 326 323 319 317 316 315 313 307 305 300
124 145 140 139 138 123 148 168 176 180 187 195 201 215 233 256 279 286 277 277 295 308 319 322 322 322 326 333 332 332 329 324 321 319 320 321 318 315 314 314 311 307 304
146 145 147 143 132 140 169 183 180 185 194 202 207 227 249 264 283 289 289 285 302 315 323 324 321 323 324 327 327 326 320 318 321 324 322 319 315 312 311 310 309 306 303
145 135 131 127 137 143 150 177 179 184 206 218 224 235 254 275 291 293 292 304 308 319 323 326 319 316 318 320 322 321 318 319 321 319 317 315 314 311 309 307 304 303 302
119 114 119 122 120 123 135 157 175 196 215 225 233 242 256 278 304 301 304 303 307 314 315 316 310 311 313 320 319 315 315 316 317 315 312 310 309 307 307 307 308 308 307
132 115 119 122 123 129 135 150 172 195 217 234 245 265 281 293 302 306 302 297 303 309 308 308 306 308 312 310 306 306 311 313 312 310 308 307 307 308 308 308 309 308 308
128 130 132 132 136 142 140 152 175 209 230 251 264 273 285 293 298 303 297 298 299 300 304 303 304 305 304 304 305 306 307 307 306 306 306 306 307 306 305 305 304 303 302
150 151 153 156 158 154 159 174 207 249 285 273 278 280 278 286 293 296 294 297 297 300 300 302 300 298 303 304 302 302 303 302 303 303 302 301 301 301 300 299 298 298 297
167 165 169 175 176 187 200 258 277 295 300 282 271 263 272 289 290 290 290 292 297 299 300 295 293 302 301 299 300 299 298 299 299 299 298 296 296 296 295 294 293 293 290
186 187 201 208 213 228 246 265 279 287 295 281 277 274 287 284 281 283 288 291 292 296 293 288 289 300 298 299 303 303 298 296 295 292 294 295 296 296 294 292 291 291 291
211 217 226 241 242 244 257 270 278 288 290 275 276 273 276 273 279 279 280 289 293 296 298 288 295 296 295 299 300 296 298 298 297 296 296 299 298 299 297 296 295 294 294
295 266 272 264 262 266 267 269 277 283 281 261 253 267 278 277 276 278 278 285 298 296 290 290 302 296 292 294 291 293 297 300 300 301 301 300 298 299 299 297 293 292 291
252 263 265 270 273 268 279 271 274 277 268 251 268 273 282 280 282 274 291 297 288 292 297 292 308 297 291 294 295 297 299 297 295 296 298 301 302 304 300 298 294 293 289
273 263 261 266 274 276 301 281 272 280 253 263 275 280 280 277 282 278 279 286 295 298 313 300 294 292 293 295 296 298 298 296 296 297 298 301 303 306 307 303 300 295 291
Height
3142 3143 3145 3148 3150 3153 3154 3155 3156 3158 3159 3160 3161 3163 3163 3165 3165 3164 3164 3165 3165 3164 3163 3163 3162 3163 3163 3163 3163 3163 3162 3162 3160 3160 3159 3158 3157 3155 3154 3155 3154 3152 3152
3141 3141 3144 3146 3149 3152 3154 3156 3156 3158 3159 3161 3162 3162 3164 3164 3165 3165 3165 3165 3166 3165 3163 3163 3162 3163 3164 3163 3162 3163 3161 3162 3161 3160 3159 3158 3156 3155 3154 3154 3154 3152 3152
3139 3140 3141 3145 3148 3151 3154 3156 3157 3158 3160 3161 3163 3163 3164 3165 3166 3165 3166 3166 3167 3166 3164 3164 3163 3163 3163 3162 3162 3162 3162 3161 3161 3160 3159 3158 3157 3155 3154 3154 3153 3152 3151
3136 3137 3139 3140 3144 3149 3151 3154 3155 3158 3159 3161 3163 3164 3164 3166 3166 3167 3168 3168 3168 3168 3166 3166 3165 3165 3164 3164 3164 3163 3162 3161 3160 3160 3159 3157 3156 3154 3154 3152 3152 3151 3150
3133 3135 3137 3139 3142 3145 3148 3151 3155 3158 3159 3161 3162 3163 3165 3166 3167 3169 3169 3169 3169 3168 3168 3166 3166 3166 3165 3164 3165 3163 3162 3161 3159 3159 3158 3156 3156 3154 3154 3152 3151 3151 3149
3133 3135 3136 3137 3138 3143 3147 3150 3153 3155 3159 3161 3162 3163 3166 3167 3168 3169 3169 3170 3170 3170 3170 3170 3167 3166 3165 3164 3164 3163 3161 3160 3159 3158 3157 3156 3155 3153 3152 3151 3149 3149 3147
3132 3128 3131 3132 3132 3139 3145 3149 3152 3155 3159 3161 3162 3164 3166 3168 3168 3170 3170 3170 3172 3171 3171 3171 3171 3168 3166 3165 3164 3163 3161 3159 3158 3156 3155 3154 3154 3153 3152 3151 3149 3147 3146
3131 3128 3122 3124 3131 3138 3142 3148 3152 3156 3158 3160 3163 3165 3166 3167 3169 3170 3171 3171 3172 3172 3172 3172 3171 3171 3168 3166 3164 3162 3161 3158 3156 3155 3154 3153 3153 3151 3150 3149 3148 3146 3145
3128 3104 3112 3120 3124 3133 3139 3148 3156 3154 3157 3161 3164 3166 3167 3168 3169 3170 3171 3171 3172 3173 3172 3171 3171 3171 3170 3168 3164 3162 3159 3158 3156 3154 3152 3150 3150 3150 3148 3146 3146 3145 3144
3118 3114 3120 3125 3125 3133 3142 3149 3151 3154 3158 3161 3165 3166 3167 3168 3169 3170 3171 3171 3172 3172 3171 3169 3169 3170 3170 3167 3164 3160 3158 3156 3155 3152 3150 3148 3147 3147 3146 3143 3142 3141 3141
3125 3125 3125 3128 3131 3133 3141 3142 3146 3150 3158 3162 3164 3166 3167 3167 3168 3169 3170 3172 3171 3171 3169 3168 3167 3166 3165 3164 3163 3160 3156 3154 3152 3149 3148 3146 3144 3143 3142 3141 3139 3138 3137
3126 3128 3129 3130 3132 3136 3142 3145 3148 3153 3158 3163 3165 3165 3166 3167 3168 3170 3170 3170 3170 3170 3168 3168 3166 3164 3161 3161 3161 3158 3155 3152 3149 3146 3144 3142 3140 3139 3139 3136 3134 3135 3134
3124 3127 3132 3132 3137 3139 3143 3145 3150 3155 3159 3162 3163 3164 3166 3167 3168 3170 3170 3168 3167 3168 3167 3166 3164 3161 3157 3156 3156 3154 3152 3149 3146 3144 3142 3139 3137 3133 3133 3133 3130 3131 3130
3126 3130 3132 3136 3139 3139 3144 3149 3151 3156 3159 3162 3164 3165 3166 3167 3168 3168 3168 3168 3166 3165 3163 3162 3160 3157 3154 3151 3151 3150 3148 3145 3144 3142 3138 3134 3132 3130 3128 3127 3125 3123 3124
3130 3132 3134 3137 3139 3143 3147 3149 3152 3156 3159 3163 3164 3165 3167 3167 3167 3166 3164 3166 3163 3162 3159 3159 3155 3153 3151 3148 3147 3146 3145 3142 3139 3135 3134 3130 3127 3125 3123 3121 3119 3117 3117
3132 3134 3136 3137 3140 3146 3148 3150 3152 3156 3159 3162 3164 3166 3165 3164 3165 3163 3162 3161 3160 3157 3156 3155 3152 3151 3149 3146 3145 3142 3140 3136 3133 3131 3129 3124 3121 3119 3117 3115 3113 3111 3109
3134 3135 3137 3139 3141 3144 3146 3150 3153 3156 3159 3160 3162 3163 3163 3163 3161 3160 3158 3157 3156 3154 3153 3152 3150 3147 3146 3142 3141 3139 3136 3132 3129 3126 3124 3120 3116 3114 3111 3108 3106 3105 3103
3134 3135 3137 3140 3141 3144 3148 3150 3154 3156 3158 3159 3160 3160 3159 3158 3156 3156 3156 3154 3153 3152 3150 3148 3146 3145 3142 3140 3138 3136 3132 3128 3124 3121 3118 3115 3111 3108 3104 3101 3099 3096 3093
3136 3139 3140 3141 3143 3146 3147 3149 3153 3156 3158 3156 3157 3156 3155 3154 3154 3153 3153 3150 3150 3149 3146 3145 3144 3141 3139 3136 3133 3130 3127 3123 3120 3117 3113 3109 3106 3102 3098 3095 3092 3090 3087
3137 3139 3141 3143 3146 3146 3148 3150 3152 3153 3154 3153 3152 3152 3153 3153 3152 3150 3149 3148 3147 3146 3144 3142 3139 3137 3134 3131 3128 3125 3122 3119 3115 3112 3108 3104 3100 3097 3092 3088 3085 3082 3079
3134 3136 3139 3142 3143 3145 3146 3149 3149 3150 3149 3149 3150 3151 3151 3149 3148 3148 3147 3146 3145 3143 3142 3139 3136 3133 3130 3127 3124 3121 3116 3113 3109 3105 3101 3098 3094 3090 3086 3081 3078 3074 3071
3135 3136 3138 3140 3141 3143 3145 3146 3147 3147 3147 3147 3146 3147 3148 3147 3146 3146 3144 3143 3141 3140 3137 3133 3131 3128 3125 3122 3118 3114 3110 3108 3102 3098 3093 3089 3086 3082 3078 3072 3068 3065 3061
3134 3135 3138 3139 3141 3142 3143 3143 3144 3144 3144 3144 3145 3145 3145 3145 3144 3142 3141 3139 3137 3135 3130 3127 3125 3121 3118 3115 3112 3107 3099 3095 3091 3089 3086 3081 3077 3073 3069 3063 3059 3055 3052
3132 3133 3136 3137 3138 3139 3139 3140 3140 3140 3140 3141 3141 3141 3141 3141 3139 3138 3136 3134 3132 3129 3126 3122 3118 3113 3110 3106 3103 3099 3094 3088 3081 3074 3072 3071 3067 3063 3058 3054 3050 3046 3043
3130 3130 3132 3133 3135 3134 3135 3135 3136 3136 3137 3138 3137 3137 3136 3134 3133 3131 3130 3129 3127 3123 3119 3115 3110 3106 3101 3097 3092 3088 3086 3082 3077 3070 3062 3058 3054 3053 3047 3041 3039 3037 3033
3125 3126 3128 3128 3129 3130 3130 3131 3132 3132 3132 3132 3132 3132 3130 3129 3128 3125 3123 3120 3115 3112 3110 3106 3101 3096 3093 3088 3084 3079 3075 3071 3066 3062 3056 3051 3045 3039 3036 3031 3027 3025 3022